Weather History for KTVL - February, 2012

Change the Weather History Date:

Friday, February 17, 2012

  Actual Average Record
Temperature  
Mean Temperature 35 °F 31 °F  
Max Temperature 55 °F 44 °F 55 °F (2012)
Min Temperature 14 °F 18 °F -8 °F (1969)
Degree Days  
Heating Degree Days 30 34  
Month to date heating degree days 556 590  
Since 1 July heating degree days 4292 4872  
Cooling Degree Days 0 0  
Month to date cooling degree days 0 0  
Year to date cooling degree days 0 0  
Moisture  
Dew Point 17 °F    
Average Humidity 49    
Maximum Humidity 75    
Minimum Humidity 22    
Precipitation  
Precipitation 0.00 in - - ()
Month to date precipitation 0.38  
Year to date precipitation 4.26  
Sea Level Pressure  
Sea Level Pressure 30.25 in    
Wind  
Wind Speed 3 mph (South)    
Max Wind Speed 10 mph    
Max Gust Speed 13 mph    
Visibility 10 miles    
Events      
T = Trace of Precipitation, MM = Missing Value Source: NWS Daily Summary

Daily Weather History Graph

Daily Weather History Graph

Search for Another Location

Airport or City:

Trip Planner

Search our weather history database for the weather conditions in past years. The results will help you decide how hot, cold, wet, or windy it might be!

Date:

Astronomy

Feb. 17, 2012 Rise Set
Actual Time 6:49 AM PST 5:39 PM PST
Civil Twilight 6:22 AM PST 6:06 PM PST
Nautical Twilight 5:50 AM PST 6:37 PM PST
Astronomical Twilight 5:20 AM PST 7:08 PM PST
Moon 3:43 AM PST (2/17) 1:39 PM PST (2/17)
Length of Visible Light 11h 44m
Length of Day
10h 50m
Waning Crescent, 18% of the Moon is Illuminated
Feb 17
Waning Crescent
Feb 21
New
Feb 29
First Quarter
Mar 8
Full
Mar 14
Last Quarter

Hourly Weather History & Observations

Time (PST) Temp. Windchill Dew Point Humidity Pressure Visibility Wind Dir Wind Speed Gust Speed Precip Events Conditions
12:53 AM 19.0 °F 13.9 °F 9.0 °F 65% 30.28 in 10.0 mi SSW 3.5 mph - N/A   Clear
1:53 AM 17.1 °F 11.7 °F 9.0 °F 71% 30.27 in 10.0 mi SSW 3.5 mph - N/A   Clear
2:53 AM 15.1 °F 7.7 °F 9.0 °F 77% 30.28 in 9.0 mi South 4.6 mph - N/A   Clear
3:53 AM 15.1 °F 9.4 °F 8.1 °F 74% 30.28 in 10.0 mi SSW 3.5 mph - N/A   Clear
4:53 AM 16.0 °F - 7.0 °F 68% 30.32 in 10.0 mi Calm Calm - N/A   Clear
5:53 AM 15.1 °F 9.4 °F 8.1 °F 74% 30.35 in 10.0 mi South 3.5 mph - N/A   Clear
6:53 AM 15.1 °F 7.7 °F 8.1 °F 74% 30.36 in 10.0 mi SSW 4.6 mph - N/A   Scattered Clouds
7:53 AM 18.0 °F - 10.0 °F 71% 30.38 in 10.0 mi Calm Calm - N/A   Clear
8:53 AM 26.1 °F 21.9 °F 14.0 °F 60% 30.32 in 10.0 mi South 3.5 mph - N/A   Clear
9:53 AM 37.9 °F 32.7 °F 19.0 °F 47% 30.28 in 10.0 mi NE 6.9 mph - N/A   Clear
10:53 AM 43.0 °F 41.3 °F 19.9 °F 40% 30.26 in 10.0 mi NE 3.5 mph - N/A   Clear
11:53 AM 45.0 °F 39.7 °F 21.9 °F 40% 30.24 in 10.0 mi NNE 10.4 mph - N/A   Clear
12:53 PM 46.9 °F - 24.1 °F 41% 30.22 in 10.0 mi NNE 6.9 mph - N/A   Clear
1:53 PM 50.0 °F - 19.9 °F 31% 30.19 in 10.0 mi NNE 6.9 mph - N/A   Clear
2:53 PM 53.1 °F - 15.1 °F 22% 30.17 in 10.0 mi Calm Calm - N/A   Clear
3:53 PM 50.0 °F - 18.0 °F 28% 30.15 in 10.0 mi Calm Calm - N/A   Clear
4:53 PM 46.0 °F 43.1 °F 23.0 °F 40% 30.15 in 10.0 mi NE 5.8 mph - N/A   Clear
5:53 PM 39.9 °F - 24.1 °F 53% 30.22 in 10.0 mi Calm Calm - N/A   Clear
6:53 PM 39.9 °F 37.8 °F 27.0 °F 60% 30.23 in 10.0 mi SSW 3.5 mph - N/A   Clear
7:53 PM 35.6 °F 32.8 °F 24.8 °F 65% 30.20 in 10.0 mi SW 3.5 mph - N/A   Clear
8:53 PM 33.1 °F - 25.0 °F 72% 30.23 in 10.0 mi Calm Calm - N/A   Clear
9:53 PM 30.9 °F - 21.9 °F 69% 30.18 in 10.0 mi Calm Calm - N/A   Clear
10:53 PM 28.9 °F - 21.0 °F 72% 30.17 in 10.0 mi Calm Calm - N/A   Clear
11:53 PM 28.0 °F - 19.9 °F 72% 30.16 in 10.0 mi Calm Calm - N/A   Clear